Volver al catálogo

ARIANE 5 R/B

ActivoGTO
NORAD 42742·ROCKET BODY·🇫🇷 France

Lanzado Jun 1, 2017 desde Guiana Space Centre

Loading…

TLE

ObsoletoSource: Space-Track

Época: Sep 14, 2026, 00:42 UTC

1 42742U 17029C   26257.02977492  .00002142  00000-0  13528-2 0  9990
2 42742   5.7568  92.1289 7194402 104.8990 338.7223  2.36891463 78433

Sigue ARIANE 5 R/B en tiempo real con AllMySat

Download on the App Store